Regional Weather Roundup
Issued by NWS

Home | Current Version | Previous Version | Graphics & Text | Print | Product List | Glossary On
Versions: 1 2 3 4 5 6 7 8 9 10 11 12 13 14 15 16 17 18 19 20 21 22 23 24 25 26 27 28 29 30 31 32 33 34 35 36 37 38 39 40 41 42 43 44 45 46 47 48 49 50
000
ASUS43 KOAX 230202
RWRNE

WEATHER ROUNDUP FOR NEBRASKA
NATIONAL WEATHER SERVICE OMAHA NE
900 PM CDT FRI AUG 22 2014

NOTES: SATELLITE DATA IS BEING USED TO AUGMENT CLOUD COVER ABOVE
       12000 FEET.
       "FAIR" INDICATES FEW OR NO CLOUDS BELOW 12,000 FEET WITH NO
       SIGNIFICANT WEATHER AND/OR OBSTRUCTIONS TO VISIBILITY.

  * THESE STATIONS DO NOT REPORT WEATHER SUCH AS RAIN...SNOW OR FOG.

NEZ001>004-019>022-054>056-230300-
NEBRASKA PANHANDLE

CITY           SKY/WX    TMP DP  RH WIND       PRES   REMARKS
SCOTTSBLUFF    LGT RAIN  64  62  93 E13       30.04R
ALLIANCE       LGT RAIN  64  61  90 S6        30.05R
CHADRON        CLOUDY    74  56  53 S9        29.98R
KIMBALL        LGT RAIN  61  59  94 SE18      30.06F
SIDNEY         LGT RAIN  63  60  90 NW10      30.08S
$$

NEZ057>060-069>072-079>082-230300-
SOUTHWEST NEBRASKA

CITY           SKY/WX    TMP DP  RH WIND       PRES   REMARKS
NORTH PLATTE   LGT RAIN  72  66  81 N12       29.95F
IMPERIAL       LGT RAIN  70  65  84 N9        29.95F
LEXINGTON      CLOUDY    80  73  81 E10       29.93R
MCCOOK         TSTM      71  63  75 E12       29.91R
OGALLALA       CLOUDY    71  60  69 NE9       29.99S
$$

NEZ005>010-023>029-035>040-094-230300-
NORTH CENTRAL NEBRASKA

CITY           SKY/WX    TMP DP  RH WIND       PRES   REMARKS
VALENTINE      MOCLDY    73  62  68 CALM      29.98S
AINSWORTH      CLOUDY    72  68  88 CALM      29.99F
BROKEN BOW     CLOUDY    80  69  69 E13       29.96R
O`NEILL        MOCLDY    74  70  87 E7        29.98S
ORD            MOCLDY    77  67  71 NE8       29.93S
THEDFORD       CLOUDY    71  63  74 N3        29.99S
$$

NEZ041-046>049-061>064-073>077-083>087-230300-
SOUTH CENTRAL NEBRASKA

CITY           SKY/WX    TMP DP  RH WIND       PRES   REMARKS
GRAND ISLAND   CLOUDY    80  75  84 E8        29.92S
AURORA         MOCLDY    79  78  97 SE7       29.92S
HASTINGS       MOCLDY    80  71  74 E7        29.93R
HEBRON         PTCLDY    80  69  70 E7        29.93R
HOLDREGE       CLOUDY    78  73  85 E9        29.94R THUNDER
KEARNEY *      CLOUDY    79  73  83 E10       29.94R
YORK           PTCLDY    75 N/A N/A SE7       29.92S
$$

NEZ011>018-030>034-042>045-230300-
NORTHEAST NEBRASKA

CITY           SKY/WX    TMP DP  RH WIND       PRES   REMARKS
NORFOLK        MOCLDY    79  72  79 E20G25    29.95R THUNDER
ALBION         CLOUDY    78  66  66 E13G20    29.96R
BLAIR          LGT RAIN  75  73  92 CALM      29.93R
FREMONT        CLOUDY    75  72  89 CALM      29.92R
TEKAMAH        CLOUDY    74  71  91 N3        29.91F
WAYNE          CLOUDY    78  76  91 SW8       29.97R
$$

NEZ050>053-065>068-078-088>093-230300-
SOUTHEAST NEBRASKA

CITY           SKY/WX    TMP DP  RH WIND       PRES   REMARKS
LINCOLN        MOCLDY    83  69  62 SE13      29.91S
OMAHA EPPLEY   CLOUDY    77  74  90 SE6       29.91F
BEATRICE       MOCLDY    78  73  83 E6        29.91S
FALLS CITY     CLOUDY    77  74  90 NE6       29.91S
NEBRASKA CITY  MOCLDY    75  75 100 E6        29.93S
PLATTSMOUTH    MOCLDY    77  73  88 SE6       29.93R
$$

NEZ044-045-051>053-067-230300-
OMAHA AREA

CITY           SKY/WX    TMP DP  RH WIND       PRES   REMARKS
OMAHA EPPLEY   CLOUDY    77  74  90 SE6       29.91F
BLAIR          LGT RAIN  75  73  92 CALM      29.93R
FREMONT        CLOUDY    75  72  89 CALM      29.92R
MILLARD        MOCLDY    79  76  90 SE8       29.91S
OFFUTT AFB     MOCLDY    77  77 100 E5        29.91F
PLATTSMOUTH    MOCLDY    77  73  88 SE6       29.93R
WAHOO          FAIR      73  69  88 CALM      29.93R
$$



USA.gov is the U.S. government's official web portal to all federal, state and local government web resources and services.